www.pogodaiklimat.ru

Погода и климат >> Архив погоды >> Доминиканская Республика >> Санто-Доминго


АРХИВ ПОГОДЫ в Санто-Доминго

Время (UTC), дата Ветер
(напр.,м/с)
 
Видим.   Явления Облачность Т
(С)
Тd
(С)
f
(%)
Тe
(С)
Тes
(С)
Комфортность P
(гПа)
Po
(гПа)
Тmin
(С)
Tmax
(С)
R
(мм)
R24
(мм)
S
(см)
09 19.06 СЗ 2 16 км 4/4 300 м
[Cu Sc As trans Cs]
+26.0 +23.3 85 1017.5
15 19.06 Ю 3 16 км 4/4 660 м
[Cu med, cong]
+31.2 +24.3 67 +43 +53 опасность
перегрева
1018.1 1016.5
18 19.06 ЮВ 2 16 км 5/5 720 м
[Cu med, cong]
+33.0 +26.0 67 +49 +59 опасность
перегрева
1017.8 1016.2 +26.0 +34.2
21 19.06 Ю 2 16 км 6/6 720 м
[Cb cap]
+32.8 +25.8 67 +48 +50 опасность
перегрева
1016.0 1014.4
00 20.06 ЮВ 2 16 км 4/3 700 м
[Cu med, cong Ci fib]
+29.6 +24.8 75 +42 +42 опасность
перегрева
1015.2 1013.6 +26.0 +34.2
03 20.06 В 2 16 км 4/4 660 м
[Cu med, cong]
+28.6 +25.1 81 +41 +41 опасность
перегрева
1018.2 1016.6
06 20.06 штиль 0 16 км 3/3 600 м
[Cu med, cong]
+27.6 +24.6 84 +39 +39 очень
душно
1017.2 1015.6 +26.0 +34.2
09 20.06 В 2 16 км 5/5 540 м
[Cu med, cong]
+27.0 +24.3 85 +38 +38 очень
душно
1016.6 1015.0
12 20.06 СВ 2 16 км 5/5 540 м
[Cb cap]
+27.8 +24.3 81 +39 +41 очень
душно
1018.1 1016.5 +27.0 +34.2
15 20.06 Ю 3 16 км 5/5 660 м
[Cb cap]
+30.0 +24.8 74 +43 +51 опасность
перегрева
1018.6 1017.0
18 20.06 Ю 2 16 км слаб. дождь 9/8 540 м
[Cb cap As op]
+32.0 +24.0 63 +44 +46 опасность
перегрева
1018.1 1016.5 +26.0 +32.2 1
21 20.06 Ю 3 16 км {дождь} 9/8 540 м
[Cb cap As op]
+29.0 +25.9 83 +43 +44 опасность
перегрева
1017.1 1015.5 2
00 21.06 Ю 2 16 км {дождь} 8/4 480 м
[Cu Sc Ac As Cs]
+28.4 +24.4 79 +40 +40 очень
душно
1017.8 1016.2 +26.0 +33.4
03 21.06 ЮВ 3 16 км {дождь} 5/4 480 м
[Cu med, cong Ac trans Cs]
+28.0 +25.3 85 +41 +41 опасность
перегрева
1019.0 1017.4 2
06 21.06 Ю 2 16 км {дождь} 6/4 540 м
[Cu med, cong Ac trans Cs]
+27.0 +24.8 88 +39 +39 очень
душно
1018.6 1017.0 +26.0 +33.4
09 21.06 штиль 0 16 км 8/8 480 м
[Cu Sc]
+26.6 +24.7 89 +38 +38 очень
душно
1018.2 1016.6
12 21.06 СЗ 2 10 км пыль {туман} 6/4 500 м
[Cb cap Cs]
+27.2 +24.4 85 +38 +41 очень
душно
1018.6 1017.0 +33.4
15 21.06 ЮВ 4 14 км пыль {туман} 5/5 700 м
[Cu med, cong]
+30.9 +25.8 74 +46 +52 опасность
перегрева
1018.8 1017.2
18 21.06 Ю 2 14 км пыль {туман} 6/6 720 м
[Cu med, cong]
+32.2 +25.7 69 +47 +55 опасность
перегрева
1018.2 1016.6 +26.5 +33.2
21 21.06 Ю 3 14 км пыль {туман} 6/6 720 м
[Cu med, cong]
+32.5 +25.9 68 +48 +50 опасность
перегрева
1017.6 1016.0
00 22.06 Ю 3 14 км пыль {туман} 4/4 540 м
[Cu med, cong]
+29.5 +25.6 80 +44 +44 опасность
перегрева
1018.8 1017.2 +26.5 +34.0
03 22.06 штиль 0 14 км пыль {туман} 3/3 540 м
[Cu med, cong]
+28.0 +24.8 83 +40 +40 очень
душно
1020.2 1018.6
06 22.06 Ю 2 12 км пыль {туман} 4/4 540 м
[Cu med, cong]
+27.6 +24.9 85 +39 +39 очень
душно
1019.2 1017.6 +26.5 +34.0
09 22.06 В 2 12 км пыль {туман} 3/3 480 м
[Cu med, cong]
+26.4 +24.2 88 +37 +37 очень
душно
1019.0 1017.4
12 22.06 СЗ 2 10 км пыль {туман} 1/1 540 м
[Cu med, cong]
+26.6 +23.9 85 +37 +40 очень
душно
1019.6 1018.0 +26.4 +34.0
15 22.06 ЮЗ 2 12 км пыль {туман} 5/5 600 м
[Cu med, cong]
+30.0 +24.4 72 +42 +51 опасность
перегрева
1019.6 1018.0
18 22.06 Ю 3 12 км пыль {туман} 3/3 700 м
[Cu med, cong]
+32.2 +25.4 67 +46 +58 опасность
перегрева
1018.6 1017.0 +26.4 +33.4
21 22.06 Ю 2 12 км пыль {туман} 3/3 700 м
[Cu med, cong]
+33.0 +26.4 68 +49 +53 опасность
перегрева
1017.6 1016.0
00 23.06 Ю 2 12 км пыль {туман} 4/4 660 м
[Cu med, cong]
+29.0 +25.0 79 +42 +42 опасность
перегрева
1018.8 1017.2 +26.4 +34.0
03 23.06 Ю 2 12 км пыль {туман} 4/4 600 м
[Cu med, cong]
+28.6 +25.1 81 +41 +41 опасность
перегрева
1020.0 1018.4
06 23.06 В 2 12 км пыль {туман} 3/3 600 м
[Cu med, cong]
+27.6 +24.9 85 +39 +39 очень
душно
1019.0 1017.4 +26.4 +34.0
09 23.06 В 2 12 км пыль {туман} 4/4 540 м
[Cu med, cong]
+27.2 +24.8 87 +39 +39 очень
душно
1018.2 1016.6
12 23.06 З 2 12 км пыль {туман} 6/1 540 м
[Cu med, cong Ci fib]
+28.0 +24.8 83 +40 +43 очень
душно
1018.6 1017.0 +26.8 +34.0
15 23.06 Ю 2 12 км пыль {туман} 6/5 600 м
[Cu med, cong Cs]
+30.4 +24.6 71 +43 +52 опасность
перегрева
1018.6 1017.0
18 23.06 Ю 3 12 км пыль {туман} 8/4 660 м
[Cu med, cong Ci fib]
+32.0 +25.2 67 +46 +54 опасность
перегрева
1017.1 1015.5 +26.4 +33.5
21 23.06 Ю 3 14 км пыль {туман} 8/3 600 м
[Cu med, cong Ci fib]
+32.4 +26.2 70 +49 +51 опасность
перегрева
1016.1 1014.5
00 24.06 Ю 2 12 км пыль {туман} 8/4 480 м
[Cu Sc Cs]
+29.0 +23.6 73 +40 +40 очень
душно
1016.6 1015.0 +26.8 +33.5
03 24.06 ЮВ 2 12 км пыль {туман} 8/3 480 м
[Cu Sc Ac trans Cs]
+28.2 +23.9 78 +39 +39 очень
душно
1017.3 1015.7
06 24.06 штиль 0 12 км пыль {туман} 5/3 480 м
[Cu Sc Ac trans Cs]
+27.3 +23.1 78 +37 +37 очень
душно
1015.9 1014.3 +26.8 +33.5
09 24.06 СЗ 2 12 км пыль {туман} 1/1 480 м
[Cu Sc]
+25.6 +22.8 85 +34 +34 очень
душно
1015.3 1013.7
12 24.06 З 2 14 км пыль {туман} 4/1 540 м
[Sc Ci]
+26.5 +23.1 82 +36 +39 очень
душно
1016.1 1014.5 +26.5 +33.5
15 24.06 Ю 3 14 км пыль {туман} 8/5 660 м
[Cu Sc Ci]
+31.0 +24.7 69 +44 +51 опасность
перегрева
1016.1 1014.5
18 24.06 ЮВ 3 14 км пыль {туман} 8/4 700 м
[Cu med, cong Ci]
+32.5 +25.7 67 +47 +56 опасность
перегрева
1015.8 1014.2 +25.5 +33.5
21 24.06 Ю 3 14 км 8/4 750 м
[Cu med, cong Ci]
+32.2 +26.0 70 +48 +50 опасность
перегрева
1015.6 1014.0
00 25.06 Ю 2 14 км пыль {туман} 4/4 540 м
[Cu med, cong]
+29.0 +25.0 79 +42 +42 опасность
перегрева
1015.7 1014.1 +25.5 +33.5
03 25.06 штиль 0 14 км пыль {туман} 4/4 540 м
[Cu med, cong Ac trans]
+28.4 +25.2 83 +41 +41 опасность
перегрева
1016.8 1015.2
06 25.06 ЮВ 2 14 км пыль {туман} 8/3 540 м
[Cu med, cong Ci]
+27.0 +23.5 81 +37 +37 очень
душно
1016.1 1014.5 +25.5 +33.5
09 25.06 СЗ 2 14 км пыль {туман} 1/1 480 м
[Cu hum]
+25.8 +23.9 89 +35 +35 очень
душно
1015.6 1014.0
12 25.06 СЗ 2 16 км {туман} 4/1 540 м
[Cu Sc Ci]
+26.2 +23.5 85 +36 +39 очень
душно
1016.1 1014.5 +26.0 +33.5
15 25.06 Ю 3 16 км 6/5 660 м
[Cu med, cong Ac trans Ci]
+30.2 +24.7 72 +43 +50 опасность
перегрева
1016.1 1014.5
00 26.06 С 3 16 км {гроза} 9/8 600 м
[Cb cap Cs]
+27.2 +23.7 81 +37 +37 очень
душно
1016.2 1014.6 +26.0 +34.0
03 26.06 СВ 2 16 км 5/4 600 м
[Cu med, cong Ci fib]
+27.6 +23.0 76 +37 +37 очень
душно
1017.6 1016.0
06 26.06 С 2 16 км 4/4 600 м
[Cu med, cong]
+27.0 +23.2 80 +36 +36 очень
душно
1016.8 1015.2 +26.0 +34.0

 

Местоположение метеостанции Санто-Доминго (Доминиканская Республика): широта 18.43 долгота -69.88 высота над уровнем моря 14 м.

В архиве по умолчанию представлена погода в Санто-Доминго за последнюю неделю. Архивные данные за месяц целиком и за предыдущие месяцы, начиная с января 2011 года, Вы можете получить, выбрав интересующий диапазон дат из раскрывающегося списка и нажав кнопку "Ввод!".


*Определитесь, кто Вы:
робот инопланетянин человек

Внимание! Время в таблицах - всемирное. Для получения местного времени необходимо прибавить поправку, которая равна -4 ч.

Смотрите также архив погоды в соседних городах и на ближайших метеорологических станциях:

Погода в Лас Америкас (Доминиканская Республика) (23 км)
Погода в Сабана де ла Мар (Доминиканская Республика) (87 км)
Погода в Ла Романа аэропорту (Доминиканская Республика) (101 км)
Погода в Бараоне (Доминиканская Республика) (131 км)
Погода в Сантьяго (Доминиканская Республика) (143 км)
Погода в Пунта-Кане (Доминиканская Республика) (161 км)
Погода в Пуэрто-Плате (Доминиканская Республика) (163 км)
Погода в Пунта-де-Маиси (Куба) (492 км)
Погода в Шарлотта-Амалии (Виргинские Острова) (519 км)
Погода в Сантьяго-де-Кубе (Куба) (650 км)

Пояснения к столбцам:

Ветер - указаны скорость ветра в м/с - средняя за 10 мин, порывы в срок и между сроками (в фигурных скобках) и направление, откуда дует ветер: С - северный, СВ - северо-восточный, В - восточный, ЮВ - юго-восточный, Ю - южный, ЮЗ - юго-западный, З - западный, СЗ - северо-западный.
Видимость - горизонтальная дальность видимости в метрах или километрах. При видимости от 1 до 10 км при отсутствии осадков обычно наблюдается дымка, при ухудшении видимости до 1 км и менее - туман. В сухую погоду видимость может ухудшаться дымом, пылью или мглою.
Явления - указаны атмосферные явления, наблюдавшиеся в срок или в последний час перед сроком; фигурными скобками обозначены явления, наблюдавшиеся между сроками (за 1-3 часа до срока); квадратными скобками обозначены град или гололедные отложения с указанием их диаметра в мм.
Облачность - указаны через наклонную черту общая и нижняя облачность в баллах и высота нижней границы облаков в метрах; квадратными скобками обозначены формы облаков: Ci - перистые, Cs - перисто-слоистые, Cc - перисто-кучевые, Ac - высококучевые, As - высокослоистые, Sc - слоисто-кучевые, Ns - слоисто-дождевые, Cu - кучевые, Cb - кучево-дождевые. Подробнее классификацию облаков см. в Атласе облаков (PDF).
T - Температура воздуха - температура, измеренная на высоте 2 м над землей.
Td - Температура точки росы - температура, при понижении до которой содержащийся в воздухе водяной пар достигнет насыщения.
f - Относительная влажность воздуха - влажноcть воздуха, измеренная на высоте 2 м над землей.
Te - Эффективная температура - температура, которую ощущает одетый по сезону человек в тени. Характеристика душности погоды. При расчете учитывается влияние влажности воздуха и скорости ветра на теплоощущения человека.
Tes - Эффективная температура на солнце - температура, которую ощущает человек, с поправкой на солнечный нагрев. Характеристика знойности погоды. Зависит от высоты солнца над горизонтом, облачности и скорости ветра. Ночью, в пасмурную погоду, а также при ветре 12 м/с и более поправка равна нулю.
P - Атмосферное давление - приведенное к уровню моря атмосферное давление.
Po - Атмосферное давление - измеренное на уровне метеостанции атмосферное давление.
Tmin - Минимальная температура - минимум температуры воздуха на высоте 2 м над землей.
Tmax - Максимальная температура - максимум температуры воздуха на высоте 2 м над землей.
R - Количество осадков - Количество выпавших осадков за период времени, мм. При наведении курсора мыши на число - период времени, за который выпало указанное количество осадков.
R24 - Количество осадков - Количество выпавших осадков за 24 часа, мм.
S - Снежный покров - Высота снежного покрова, см. При наведении курсора мыши на число - состояние снежного покрова и степень покрытия местности в баллах.